This demonstration page uses our WeatherBlox Daily Observations layout. Learn more.

Left ArrowRight Arrow

Hourly Observations for June 25, 2019

Temp ( °F °C ) Dew Point ( °F °C ) Humidity (%) Winds ( mph kmh ) Pressure ( in mb ) Visibility ( mi km ) Precip ( " mm )
12:51 am 00:51 Clear 77 25 16 -8.9 10 10 NNW 8 13 29.69 1005 10 16 0.00 0.00
1:51 am 01:51 Clear 75 23.9 16 -8.9 10 10 WNW 5 7 29.70 1006 10 16 0.00 0.00
2:51 am 02:51 Clear 69 20.6 16 -8.9 13 13 SSE 5 7 29.72 1006 10 16 0.00 0.00
3:51 am 03:51 Clear 65 18.3 18 -7.8 16 16 S 5 7 29.73 1007 10 16 0.00 0.00
4:51 am 04:51 Clear 62 16.7 15 -9.4 16 16 ESE 5 7 29.75 1007 10 16 0.00 0.00
5:51 am 05:51 Sunny 63 17.2 15 -9.4 15 15 Calm 29.76 1008 10 16 0.00 0.00
6:51 am 06:51 Sunny 71 21.7 17 -8.3 13 13 Calm 29.78 1008 10 16 0.00 0.00
7:51 am 07:51 Sunny 77 25 18 -7.8 11 11 Calm 29.78 1009 10 16 0.00 0.00
8:51 am 08:51 Sunny 84 28.9 18 -7.8 8 8 Calm 29.78 1008 10 16 0.00 0.00
9:51 am 09:51 Sunny 89 31.7 17 -8.3 7 7 VRB 3 6 29.77 1008 10 16 0.00 0.00
10:51 am 10:51 Sunny 93 33.9 16 -8.9 6 6 VRB 6 9 29.76 1008 10 16 0.00 0.00
11:51 am 11:51 Sunny 96 35.6 16 -8.9 5 5 E 3 6 29.74 1007 10 16 0.00 0.00
12:51 pm 12:51 Sunny 97 36.1 15 -9.4 5 5 W 6 9 29.72 1006 10 16 0.00 0.00
1:51 pm 13:51 Mostly Sunny 100 37.8 15 -9.4 4 4 Calm 29.69 1005 10 16 0.00 0.00
2:51 pm 14:51 Mostly Cloudy 103 39.4 15 -9.4 4 4 W 14 22 29.67 1005 10 16 0.00 0.00
3:51 pm 15:51 Mostly Sunny 100 37.8 14 -10 4 4 Calm 29.67 1005 10 16 0.00 0.00
4:51 pm 16:51 Sunny 99 37.2 16 -8.9 5 5 Calm 29.66 1004 10 16 0.00 0.00
5:51 pm 17:51 Sunny 101 38.3 16 -8.9 4 4 WNW 14 22 29.64 1004 10 16 0.00 0.00
6:51 pm 18:51 Mostly Cloudy 96 35.6 22 -5.6 7 7 NW 16 26 29.65 1004 10 16 0.00 0.00
7:51 pm 19:51 Mostly Clear 92 33.3 24 -4.4 8 8 WNW 16 26 29.67 1005 10 16 0.00 0.00
8:51 pm 20:51 Clear 89 31.7 25 -3.9 10 10 NW 15 24 29.68 1005 10 16 0.00 0.00
9:51 pm 21:51 Clear 83 28.3 25 -3.9 12 12 W 8 13 29.72 1007 10 16 0.00 0.00
10:51 pm 22:51 Clear 83 28.3 26 -3.3 12 12 WNW 12 19 29.72 1007 10 16 0.00 0.00
11:51 pm 23:51 Clear 81 27.2 26 -3.3 13 13 WNW 9 15 29.72 1007 10 16 0.00 0.00

Powered by AerisWeather